Regional Weather Roundup
Issued by NWS Upton, NY

Current Version | Previous Version | Graphics & Text | Print | Product List | Glossary Off
Versions: 1 2 3 4 5 6 7 8 9 10 11 12 13 14 15 16 17 18 19 20 21 22 23 24 25 26 27 28 29 30 31 32 33 34 35 36 37 38 39 40 41 42 43 44 45 46 47 48 49

000
ASUS41 KOKX 011804
RWROKX

REGIONAL WEATHER ROUNDUP
NATIONAL WEATHER SERVICE NEW YORK NY
200 PM EDT SAT AUG 01 2015

NOTE: "FAIR" INDICATES FEW OR NO CLOUDS BELOW 12,000 FEET WITH NO
SIGNIFICANT WEATHER AND/OR OBSTRUCTIONS TO VISIBILITY.

NYZ071-072-176-178-NJZ106-104-011900-
NEW YORK CITY METRO AREA


CITY           SKY/WX    TMP DP  RH WIND       PRES   REMARKS
CENTRAL PARK   SUNNY     88  53  30 W12G20    29.82F
LAGUARDIA APRT MOSUNNY   89  53  29 W15G28    29.78F
KENNEDY INTL   PTSUNNY   89  58  34 SW18      29.80F
NEWARK/LIBERTY MOSUNNY   90  53  28 W20G26    29.79F
BRNX BOT. GARD   N/A     88  54  31 W3        29.80F
TETERBORO      SUNNY     89  55  31 W13       29.77F
$$

NYZ177-179-078>081-011900-
LONG ISLAND NEW YORK

CITY           SKY/WX    TMP DP  RH WIND       PRES   REMARKS
FARMINGDALE    SUNNY     90  57  32 W18       29.79F
ISLIP          PTSUNNY   89  63  41 SW14      29.77S HX  90
SHIRLEY        MOSUNNY   90  64  42 SW12G18   29.78F HX  91
WESTHAMPTON    MOSUNNY   87  63  44 SW14G26   29.79F
MONTAUK POINT    N/A     85  68  56 SW8       29.79F
$$

NYZ052-065-067-011900-
HUDSON VALLEY

CITY           SKY/WX    TMP DP  RH WIND       PRES   REMARKS
WHITE PLAINS   MOSUNNY   83  57  41 VRB5G17   29.79F
NEWBURGH       MOSUNNY   84  59  42 W18G25    29.80F
MONTGOMERY     MOSUNNY   85  59  41 NW14      29.80S
POUGHKEEPSIE   MOSUNNY   86  56  35 W10       29.77S
ALBANY         MOSUNNY   83  55  38 W15       29.78F
$$

NJZ001-105-106-008-010-013-015-019>022-104-011900-
NEW JERSEY

CITY           SKY/WX    TMP DP  RH WIND       PRES   REMARKS
NEWARK/LIBERTY MOSUNNY   90  53  28 W20G26    29.79F
TETERBORO      SUNNY     89  55  31 W13       29.77F
CALDWELL       MOSUNNY   87  56  34 W13G21    29.79F
MORRISTOWN     MOSUNNY   90  57  33 W10G20    29.81F
SOMERVILLE     MOSUNNY   87  56  34 VRB6      29.79F
SUSSEX         PTSUNNY   83  57  41 VRB5      29.81F
ANDOVER          N/A     84  58  40 SW7G17    29.82F
TRENTON        MOSUNNY   87  56  34 W10G21    29.82F
MILLVILLE      SUNNY     89  58  34 W7        29.85F
ATLANTIC CITY  MOSUNNY   89  64  43 W14G23    29.84F HX  90
WRIGHTSTOWN    NOT AVBL
TOMS RIVER       N/A     90  57  33 W10G17    29.82F
BELMAR         MOSUNNY   88  59  37 W13       29.82F
$$

PAZ047>061-062-071-011900-
EASTERN PENNSYLVANIA

CITY           SKY/WX    TMP DP  RH WIND       PRES   REMARKS
PHILADELPHIA   PTSUNNY   88  55  32 W13G23    29.84F
ALLENTOWN      SUNNY     84  60  44 W13       29.83F
SCRANTON       PTSUNNY   81  57  43 W5        29.85F
$$

CTZ002-004>006-009-010-012-RIZ004-006-007-MAZ004-011-015-011900-
SOUTHERN NEW ENGLAND
 IN CT

CITY           SKY/WX    TMP DP  RH WIND       PRES   REMARKS
BRADLEY INTL   MOSUNNY   88  56  33 SW15G22   29.73F
HARTFORD       FAIR      88  58  36 W14G20    29.74F
DANBURY        PTSUNNY   85  57  38 W6        29.80F
WTRBRY/OXFORD  MOSUNNY   82  61  47 W9G17     29.82F
BRIDGEPORT     SUNNY     87  65  47 SW15      29.77F
MERIDEN        PTSUNNY   86  58  38 VRB7      29.76F
NEW HAVEN      SUNNY     84  63  49 SW13G18   29.77F
CHESTER        FAIR      82  64  54 SW7       29.79F
GROTON         MOSUNNY   82  67  60 SW10      29.76F
WILLIMANTIC    MOSUNNY   85  59  41 W9G17     29.76F

 IN RI

CITY           SKY/WX    TMP DP  RH WIND       PRES   REMARKS
PROVIDENCE     PTSUNNY   83  62  49 W12G17    29.75F
BLOCK ISLAND     N/A     79  70  73 SW14G23   29.80S
WESTERLY       SUNNY     84  64  50 SW9       29.77F

 IN MA

CITY           SKY/WX    TMP DP  RH WIND       PRES   REMARKS
BOSTON         PTSUNNY   88  58  36 W18G25    29.71F
WORCESTER      MOSUNNY   81  56  42 W14       29.78F
WESTFIELD      MOSUNNY   81  56  42 NW20G26   29.75F
PROVINCETOWN   SUNNY     84  64  51 SW15      29.73F
NANTUCKET      SUNNY     78  69  73 SW14      29.79F
$$

ANZ330-335-338-340-345-350-353-355-011900-
COASTAL MARINE OBSERVATIONS


STATION/POSITION TIME  SKY/WX   TEMP    WIND        PRES    VSBY  WAVE
                                AIR SEA DIR/SP/G                  HT/PER
                 (UTC)          (F)     (DEG/KT/KT) (MB)    (MI)  (FT/S)
NY HARB ENTRANCE 1750            79 77  250/ 10/ 10 1009.1          3/10
4S FIRE IS       NOT AVBL
20S FIRE ISLAND  1650            77 76  240/ 10/ 12 1009.6          4/10
GREAT SOUTH BAY  1700            79 81  260/ 10/ 19   N/A
23SW MTP         1750            76 74  230/ 14/ 17 1008.5          4/10
HUDSON CANYON    NOT AVBL
KINGS POINT      1700            81 70  310/  9/ 11 1008.4
EXECUTION ROCKS  1700            81     220/  4/  6   N/A
CENTRAL LI SOUND NOT AVBL
EASTERN LI SOUND 1700            73 69  260/  8/ 10   N/A
ROBBINS REEF     1700            83     290/ 17/ 19 1008.2
$$


>>>>>>>>>>>>>>>>>>>>>>>>>>>> KEY <<<<<<<<<<<<<<<<<<<<<<<<<<<
>                                                          <
>     SKY/WX - SKY CONDITION/PRESENT WEATHER               <
>     TMP    - TEMPERATURE IN FAHRENHEIT                   <
>     DP     - DEWPOINT IN FAHRENHEIT                      <
>     RH     - RELATIVE HUMIDITY IN PERCENT                <
>     WIND   - DIRECTION AND SPEED IN MPH                  <
>     PRES   - MEAN SEA LEVEL PRESSURE IN INCHES OF HG     <
>     WCI    - WIND CHILL INDEX                            <
>     VSB    - VISIBILITY IN MILES                         <
>     HX     - HEAT INDEX                                  <
>     TC     - TEMPERATURE IN CELSIUS                      <
>     VRB    - VARIABLE WIND DIRECTION                     <
>                                                          <
>>>>>>>>>>>>>>>>>>>>>>>>>>>> KEY <<<<<<<<<<<<<<<<<<<<<<<<<<<





USA.gov is the U.S. government's official web portal to all federal, state and local government web resources and services.